一网星座-0364星 (ONEWEB-0364 )

导读 | 星芒AI

ONEWEB-0364 是 OneWeb 卫星星座计划中的一颗低轨通信卫星,旨在为全球提供高速互联网服务。该卫星采用标准化设计,具备高容量通信能力,支持偏远和农村地区的网络接入。作为 OneWeb 扩展其卫星网络的一部分,ONEWEB-0364 于近期成功发射,加入现有星座,增强系统覆盖与性能。该卫星运行在约 1200 公里的近地轨道,采用先进推进系统,确保长期稳定运行并支持未来轨道调整和退役处置。

基本信息
目录编号:
49290
目录名称:
ONEWEB-0364
国际标识:
2021-090M
轨道中心:
EARTH
卫星名称:
一网星座-0364星
卫星全名:
一网星座-0364星 (ONEWEB-0364 )
卫星状态:
在轨 (已飞行1523 天)
发射日期:
2021-10-14 UTC
国别 :
英国 (GB)
星等 :
--
轨道信息
数据来源 国际轨道数据
星历时间: 2025-12-15T05:16:11+0800
21小时前
查看轨道信息
半长轴: 7559.914km
偏心率: 0.0001863
轨道倾角: 87.920°
近地点辐角 85.418°
升交点赤经 311.216°
平近点角 274.717°
近地点: 1180.37km
远地点: 1183.188km
周期: 109.027分钟
每日圈数: 13.207709
详细信息
平衡模式:
三轴稳定
覆盖范围:
全球
运营商:
一网卫星公司
运营商所在国:
英国
制造商(研发单位):
一网卫星公司
制造商所在国:
英国
使用方式:
暂无
卫星简介
OneWeb卫星网络由648颗重约125公斤的微型卫星组成,运行在1200公里的轨道上。 每颗卫星都能够提供至少每秒8千兆位的吞吐量,以使用其高吞吐量的Ku频段有效载荷为家庭和移动平台提供互联网接入。该卫星仍在工作。
2D轨道图
3D轨道图
轨道高度分析图
轨道倾角分析图
轨道综合分析图
查看轨道综合分析图